Regional Weather Roundup
Issued by NWS New Orleans/Baton Rouge, LA

Home | Current Version | Previous Version | Text Only | Print | Product List | Glossary On
Versions: 1 2 3 4 5 6 7 8 9 10 11 12 13 14 15 16 17 18 19 20 21 22 23 24 25 26 27 28 29 30 31 32 33 34 35 36 37 38 39 40 41 42 43 44 45 46 47 48 49 50
569
ASUS44 KLIX 210910
RWRLIX
NEW ORLEANS REGIONAL WEATHER ROUNDUP
NATIONAL WEATHER SERVICE NEW ORLEANS LA
400 AM CDT TUE OCT 21 2014

NOTE: "FAIR" INDICATES FEW OR NO CLOUDS BELOW 12,000 FEET WITH NO
      SIGNIFICANT WEATHER AND/OR OBSTRUCTIONS TO VISIBILITY.
      SKY/WX - SKY CONDITION AND SIGNIFICANT WEATHER.
      TMP - AIR TEMPERATURE.     DP    - DEWPOINT TEMPERATURE.
      RH  - RELATIVE HUMIDITY.   PRES  - PRESSURE.
      HI  - HEAT INDEX.          WCI   - WIND CHILL INDEX.

*  THESE STATIONS ARE NOT NWS OR FAA STATIONS AND ARE NOT UNDER
   NWS QUALITY CONTROL.

LAZ038-040-048-061>063-065>067-069-211000-
SOUTHEAST LOUISIANA

CITY           SKY/WX    TMP DP  RH WIND       PRES   REMARKS
N.O. AUDUBON   NOT AVBL
N.O. INTL ARPT PTCLDY    61  54  77 CALM      30.00S
N.O. LAKEFRONT CLEAR     69  55  60 E10       30.01S
N.O. DOWNTOWN*   N/A     68  52  56 NE6       30.01S
SLIDELL        CLEAR     52  49  89 CALM      30.00S
BATON ROUGE    CLEAR     56  52  86 NE3       30.01S
BOOTHVILLE     CLEAR     71  62  73 NE3       30.00R
BELLE CHASSE   CLEAR     54  51  90 CALM      30.00S
BOGALUSA*        N/A     50  47  89 CALM      30.03S
NEW ROADS*       N/A     55  54  97 CALM      30.02S
GONZALES*        N/A     56  56 100 CALM      30.00S
HAMMOND*         N/A     54  50  87 CALM      30.03S
HOUMA*         CLEAR     54  53  98 CALM      30.00S
PORT FOURCHON* SUNNY     70  63  78 NE7       30.02S

$$

MSZ070-080>082-211000-
SOUTHERN MISSISSIPPI

CITY           SKY/WX    TMP DP  RH WIND       PRES   REMARKS
MCCOMB         CLEAR     59  48  67 CALM      30.02S
GULFPORT       CLEAR     54  51  90 CALM      30.00S
BILOXI         CLEAR     56  52  85 NE5       30.00S
PASCAGOULA     CLEAR     48  47  96 CALM      30.00F

$$

COASTAL OBSERVATIONS
LAKE AND NEARSHORE STATIONS

STATION/POSITION TIME  TEMP    WIND        PRES    WAVE
                       AIR SEA DIR/SP/G            HT/PER
                 (UTC) (F)     (DEG/KT/KT) (MB)    (FT/S)
PASCAGOULA       0900   59      20/  6/  7 1015.2
WAVELAND YACHT   0900   63      50/  7/  8 1015.1
GRAND ISLE       0900   71 78   60/  8/ 10 1016.0
SOUTHWEST PASS   0900   73 83              1015.6
NEW CANAL        0900   65 72   CALM  /  1 1016.3
SHELL BEACH      0900   70 69   50/ 10/ 12 1015.7

OFFSHORE STATIONS

STATION/POSITION TIME  TEMP    WIND        PRES    WAVE
                       AIR SEA DIR/SP/G            HT/PER
                 (UTC) (F)     (DEG/KT/KT) (MB)    (FT/S)
64 S DAUPHIN ISL 0850   74 79   50/  8/ 10 1015.6    1/ 5

$$




USA.gov is the U.S. government's official web portal to all federal, state and local government web resources and services.